Time,TemperatureF,DewpointF,PressureIn,WindDirection,WindDirectionDegrees,WindSpeedMPH,WindSpeedGustMPH,Humidity,HourlyPrecipIn,Conditions,Clouds,dailyrainin,SolarRadiationWatts/m^2,SoftwareType,DateUTC
2013-03-27 00:00:00,52.2,32.6,30.25,SE,146,4.0,4.0,47,0.00,,,0.00,0,Wunderground v.1.15,2013-03-27 05:00:00,
2013-03-27 00:06:00,52.1,32.5,30.25,SSE,148,4.0,4.0,47,0.00,,,0.00,0,Wunderground v.1.15,2013-03-27 05:06:00,
2013-03-27 00:10:00,52.0,32.9,30.25,SSE,148,4.0,6.0,48,0.00,,,0.00,0,Wunderground v.1.15,2013-03-27 05:10:00,
2013-03-27 00:20:00,51.5,33.0,30.25,SSE,150,5.0,5.0,49,0.00,,,0.00,0,Wunderground v.1.15,2013-03-27 05:20:00,
2013-03-27 00:25:00,51.4,32.9,30.25,SSE,149,4.0,5.0,49,0.00,,,0.00,0,Wunderground v.1.15,2013-03-27 05:25:00,
2013-03-27 00:30:00,51.2,32.7,30.24,SSE,148,4.0,4.0,49,0.00,,,0.00,0,Wunderground v.1.15,2013-03-27 05:30:00,
2013-03-27 00:35:00,51.0,33.0,30.24,SSE,148,4.0,4.0,50,0.00,,,0.00,0,Wunderground v.1.15,2013-03-27 05:35:00,
2013-03-27 00:40:00,50.8,32.8,30.24,SSE,148,4.0,4.0,50,0.00,,,0.00,0,Wunderground v.1.15,2013-03-27 05:40:00,
2013-03-27 00:50:00,50.4,32.9,30.24,SSE,148,4.0,4.0,51,0.00,,,0.00,0,Wunderground v.1.15,2013-03-27 05:50:00,
2013-03-27 00:55:00,50.3,32.8,30.24,SSE,149,3.0,4.0,51,0.00,,,0.00,0,Wunderground v.1.15,2013-03-27 05:55:00,
2013-03-27 01:00:00,50.1,32.7,30.24,SSE,156,4.0,4.0,51,0.00,,,0.00,0,Wunderground v.1.15,2013-03-27 06:00:00,
2013-03-27 01:06:00,50.0,32.6,30.24,SSE,156,4.0,4.0,51,0.00,,,0.00,0,Wunderground v.1.15,2013-03-27 06:06:00,
2013-03-27 01:10:00,50.0,33.1,30.24,SSE,157,4.0,7.0,52,0.00,,,0.00,0,Wunderground v.1.15,2013-03-27 06:10:00,
2013-03-27 01:15:00,49.9,33.0,30.23,SSE,161,5.0,10.0,52,0.00,,,0.00,0,Wunderground v.1.15,2013-03-27 06:15:00,
2013-03-27 01:20:00,49.9,33.0,30.23,SSE,165,6.0,6.0,52,0.00,,,0.00,0,Wunderground v.1.15,2013-03-27 06:20:00,
2013-03-27 01:25:00,49.9,33.4,30.23,South,169,5.0,9.0,53,0.00,,,0.00,0,Wunderground v.1.15,2013-03-27 06:25:00,
2013-03-27 01:30:00,49.8,33.3,30.23,South,172,6.0,6.0,53,0.00,,,0.00,0,Wunderground v.1.15,2013-03-27 06:30:00,
2013-03-27 01:35:00,49.7,32.8,30.23,South,171,5.0,6.0,52,0.00,,,0.00,0,Wunderground v.1.15,2013-03-27 06:35:00,
2013-03-27 01:40:00,49.6,33.2,30.23,South,170,5.0,5.0,53,0.00,,,0.00,0,Wunderground v.1.15,2013-03-27 06:40:00,
2013-03-27 01:45:00,49.4,33.0,30.23,South,171,6.0,6.0,53,0.00,,,0.00,0,Wunderground v.1.15,2013-03-27 06:45:00,
2013-03-27 01:50:00,49.2,32.8,30.23,South,173,5.0,5.0,53,0.00,,,0.00,0,Wunderground v.1.15,2013-03-27 06:50:00,
2013-03-27 02:00:00,49.0,33.1,30.22,South,171,5.0,5.0,54,0.00,,,0.00,0,Wunderground v.1.15,2013-03-27 07:00:00,
2013-03-27 02:10:00,48.7,32.8,30.22,South,171,5.0,5.0,54,0.00,,,0.00,0,Wunderground v.1.15,2013-03-27 07:10:00,
2013-03-27 02:15:00,48.5,32.6,30.22,South,171,4.0,5.0,54,0.00,,,0.00,0,Wunderground v.1.15,2013-03-27 07:15:00,
2013-03-27 02:21:00,48.2,32.3,30.22,South,171,3.0,3.0,54,0.00,,,0.00,0,Wunderground v.1.15,2013-03-27 07:21:00,
2013-03-27 02:25:00,48.1,32.7,30.22,South,171,3.0,5.0,55,0.00,,,0.00,0,Wunderground v.1.15,2013-03-27 07:25:00,
2013-03-27 02:30:00,47.8,32.4,30.22,South,171,3.0,6.0,55,0.00,,,0.00,0,Wunderground v.1.15,2013-03-27 07:30:00,
2013-03-27 02:35:00,47.6,32.7,30.22,South,171,4.0,6.0,56,0.00,,,0.00,0,Wunderground v.1.15,2013-03-27 07:35:00,
2013-03-27 02:40:00,47.5,33.0,30.22,South,171,4.0,4.0,57,0.00,,,0.00,0,Wunderground v.1.15,2013-03-27 07:40:00,
2013-03-27 02:45:00,47.4,32.9,30.21,South,171,4.0,4.0,57,0.00,,,0.00,0,Wunderground v.1.15,2013-03-27 07:45:00,
2013-03-27 02:50:00,47.3,33.3,30.21,South,171,3.0,3.0,58,0.00,,,0.00,0,Wunderground v.1.15,2013-03-27 07:50:00,
2013-03-27 02:55:00,47.2,33.2,30.21,South,170,3.0,4.0,58,0.00,,,0.00,0,Wunderground v.1.15,2013-03-27 07:55:00,
2013-03-27 03:00:00,47.2,33.6,30.20,South,169,3.0,3.0,59,0.00,,,0.00,0,Wunderground v.1.15,2013-03-27 08:00:00,
2013-03-27 03:10:00,47.1,33.5,30.20,South,169,2.0,2.0,59,0.00,,,0.00,0,Wunderground v.1.15,2013-03-27 08:10:00,
2013-03-27 03:20:00,46.9,33.7,30.20,South,169,2.0,2.0,60,0.00,,,0.00,0,Wunderground v.1.15,2013-03-27 08:20:00,
2013-03-27 03:30:00,46.7,32.7,30.20,South,169,2.0,3.0,58,0.00,,,0.00,0,Wunderground v.1.15,2013-03-27 08:30:00,
2013-03-27 03:35:00,46.5,32.5,30.20,South,170,2.0,3.0,58,0.00,,,0.00,0,Wunderground v.1.15,2013-03-27 08:35:00,
2013-03-27 03:40:00,46.3,32.3,30.20,South,169,2.0,2.0,58,0.00,,,0.00,0,Wunderground v.1.15,2013-03-27 08:40:00,
2013-03-27 03:45:00,46.1,32.6,30.20,South,169,2.0,3.0,59,0.00,,,0.00,0,Wunderground v.1.15,2013-03-27 08:45:00,
2013-03-27 03:50:00,45.8,32.3,30.20,South,169,3.0,3.0,59,0.00,,,0.00,0,Wunderground v.1.15,2013-03-27 08:50:00,
2013-03-27 03:55:00,45.6,32.1,30.20,South,169,2.0,3.0,59,0.00,,,0.00,0,Wunderground v.1.15,2013-03-27 08:55:00,
2013-03-27 04:00:00,45.3,32.2,30.20,South,170,2.0,2.0,60,0.00,,,0.00,0,Wunderground v.1.15,2013-03-27 09:00:00,
2013-03-27 04:06:00,45.1,32.0,30.20,South,170,1.0,2.0,60,0.00,,,0.00,0,Wunderground v.1.15,2013-03-27 09:06:00,
2013-03-27 04:15:00,44.9,32.7,30.20,South,170,2.0,2.0,62,0.00,,,0.00,0,Wunderground v.1.15,2013-03-27 09:15:00,
2013-03-27 04:20:00,44.8,33.0,30.20,South,169,2.0,2.0,63,0.00,,,0.00,0,Wunderground v.1.15,2013-03-27 09:20:00,
2013-03-27 04:30:00,44.8,33.4,30.19,South,170,2.0,2.0,64,0.00,,,0.00,0,Wunderground v.1.15,2013-03-27 09:30:00,
2013-03-27 04:35:00,44.8,33.7,30.19,South,169,2.0,2.0,65,0.00,,,0.00,0,Wunderground v.1.15,2013-03-27 09:35:00,
2013-03-27 04:40:00,44.9,33.8,30.19,South,169,2.0,3.0,65,0.00,,,0.00,0,Wunderground v.1.15,2013-03-27 09:40:00,
2013-03-27 04:45:00,45.0,34.3,30.19,South,169,3.0,3.0,66,0.00,,,0.00,0,Wunderground v.1.15,2013-03-27 09:45:00,
2013-03-27 04:50:00,45.0,34.3,30.19,South,169,2.0,2.0,66,0.00,,,0.00,0,Wunderground v.1.15,2013-03-27 09:50:00,
2013-03-27 04:55:00,45.1,34.0,30.19,South,169,1.0,2.0,65,0.00,,,0.00,0,Wunderground v.1.15,2013-03-27 09:55:00,
2013-03-27 05:00:00,45.1,34.4,30.19,South,169,1.0,1.0,66,0.00,,,0.00,0,Wunderground v.1.15,2013-03-27 10:00:00,
2013-03-27 05:10:00,45.1,34.0,30.19,South,169,0.0,0.0,65,0.00,,,0.00,0,Wunderground v.1.15,2013-03-27 10:10:00,
2013-03-27 05:20:00,45.0,33.9,30.19,South,169,0.0,0.0,65,0.00,,,0.00,0,Wunderground v.1.15,2013-03-27 10:20:00,
2013-03-27 05:25:00,44.7,34.0,30.19,South,169,0.0,0.0,66,0.00,,,0.00,0,Wunderground v.1.15,2013-03-27 10:25:00,
2013-03-27 05:30:00,44.4,33.7,30.19,South,170,0.0,0.0,66,0.00,,,0.00,0,Wunderground v.1.15,2013-03-27 10:30:00,
2013-03-27 05:35:00,44.0,33.7,30.19,South,170,0.0,0.0,67,0.00,,,0.00,0,Wunderground v.1.15,2013-03-27 10:35:00,
2013-03-27 05:40:00,43.7,33.5,30.19,South,169,0.0,0.0,67,0.00,,,0.00,0,Wunderground v.1.15,2013-03-27 10:40:00,
2013-03-27 05:45:00,43.3,33.4,30.19,South,169,0.0,0.0,68,0.00,,,0.00,0,Wunderground v.1.15,2013-03-27 10:45:00,
2013-03-27 05:50:00,43.0,33.2,30.19,South,169,0.0,0.0,68,0.00,,,0.00,0,Wunderground v.1.15,2013-03-27 10:50:00,
2013-03-27 06:00:00,42.3,33.2,30.19,South,170,0.0,0.0,70,0.00,,,0.00,0,Wunderground v.1.15,2013-03-27 11:00:00,
2013-03-27 06:10:00,41.7,33.0,30.19,South,170,0.0,0.0,71,0.00,,,0.00,0,Wunderground v.1.15,2013-03-27 11:10:00,
2013-03-27 06:15:00,41.4,33.0,30.20,South,170,0.0,0.0,72,0.00,,,0.00,0,Wunderground v.1.15,2013-03-27 11:15:00,
2013-03-27 06:20:00,41.2,32.9,30.20,South,169,0.0,0.0,72,0.00,,,0.00,0,Wunderground v.1.15,2013-03-27 11:20:00,
2013-03-27 06:25:00,41.1,33.1,30.20,South,170,0.0,0.0,73,0.00,,,0.00,0,Wunderground v.1.15,2013-03-27 11:25:00,
2013-03-27 06:35:00,40.8,33.2,30.20,South,170,1.0,1.0,74,0.00,,,0.00,0,Wunderground v.1.15,2013-03-27 11:35:00,
2013-03-27 06:45:00,41.0,33.7,30.21,South,169,1.0,1.0,75,0.00,,,0.00,0,Wunderground v.1.15,2013-03-27 11:45:00,
2013-03-27 06:50:00,41.1,33.8,30.21,South,170,0.0,0.0,75,0.00,,,0.00,0,Wunderground v.1.15,2013-03-27 11:50:00,
2013-03-27 06:55:00,41.3,34.0,30.21,South,170,0.0,0.0,75,0.00,,,0.00,0,Wunderground v.1.15,2013-03-27 11:55:00,
2013-03-27 07:00:00,41.5,34.2,30.20,South,169,0.0,0.0,75,0.00,,,0.00,0,Wunderground v.1.15,2013-03-27 12:00:00,
2013-03-27 07:10:00,42.0,34.3,30.20,South,170,0.0,0.0,74,0.00,,,0.00,0,Wunderground v.1.15,2013-03-27 12:10:00,
2013-03-27 07:20:00,42.5,34.5,30.21,South,169,0.0,0.0,73,0.00,,,0.00,0,Wunderground v.1.15,2013-03-27 12:20:00,
2013-03-27 07:25:00,42.7,34.6,30.21,South,169,0.0,0.0,73,0.00,,,0.00,0,Wunderground v.1.15,2013-03-27 12:25:00,
2013-03-27 07:30:00,43.0,34.6,30.21,South,170,0.0,0.0,72,0.00,,,0.00,0,Wunderground v.1.15,2013-03-27 12:30:00,
2013-03-27 07:35:00,43.2,34.8,30.21,South,169,0.0,0.0,72,0.00,,,0.00,7,Wunderground v.1.15,2013-03-27 12:35:00,
2013-03-27 07:40:00,43.4,34.6,30.21,South,170,0.0,0.0,71,0.00,,,0.00,11,Wunderground v.1.15,2013-03-27 12:40:00,
2013-03-27 07:45:00,43.6,34.8,30.21,South,170,0.0,0.0,71,0.00,,,0.00,14,Wunderground v.1.15,2013-03-27 12:45:00,
2013-03-27 07:50:00,43.8,35.0,30.21,South,169,0.0,0.0,71,0.00,,,0.00,19,Wunderground v.1.15,2013-03-27 12:50:00,
2013-03-27 07:55:00,44.0,35.2,30.21,South,169,0.0,0.0,71,0.00,,,0.00,26,Wunderground v.1.15,2013-03-27 12:55:00,
2013-03-27 08:00:00,44.2,35.0,30.22,South,170,0.0,0.0,70,0.00,,,0.00,33,Wunderground v.1.15,2013-03-27 13:00:00,
2013-03-27 08:10:00,44.7,35.5,30.22,South,169,1.0,1.0,70,0.00,,,0.00,46,Wunderground v.1.15,2013-03-27 13:10:00,
2013-03-27 08:15:00,45.0,35.8,30.22,South,169,0.0,1.0,70,0.00,,,0.00,49,Wunderground v.1.15,2013-03-27 13:15:00,
2013-03-27 08:20:00,45.1,35.9,30.22,South,169,0.0,0.0,70,0.00,,,0.00,56,Wunderground v.1.15,2013-03-27 13:20:00,
2013-03-27 08:30:00,45.7,36.1,30.22,South,169,0.0,0.0,69,0.00,,,0.00,70,Wunderground v.1.15,2013-03-27 13:30:00,
2013-03-27 08:35:00,46.1,36.5,30.22,South,169,0.0,2.0,69,0.00,,,0.00,74,Wunderground v.1.15,2013-03-27 13:35:00,
2013-03-27 08:40:00,46.4,36.8,30.22,South,169,1.0,1.0,69,0.00,,,0.00,81,Wunderground v.1.15,2013-03-27 13:40:00,
2013-03-27 08:45:00,46.7,36.7,30.24,South,169,1.0,2.0,68,0.00,,,0.00,91,Wunderground v.1.15,2013-03-27 13:45:00,
2013-03-27 08:50:00,47.7,36.9,30.24,South,170,1.0,1.0,66,0.00,,,0.00,105,Wunderground v.1.15,2013-03-27 13:50:00,
2013-03-27 09:00:00,49.2,37.5,30.23,South,169,1.0,1.0,64,0.00,,,0.00,185,Wunderground v.1.15,2013-03-27 14:00:00,
2013-03-27 09:05:00,49.6,37.5,30.23,SSE,167,2.0,3.0,63,0.00,,,0.00,195,Wunderground v.1.15,2013-03-27 14:05:00,
2013-03-27 09:10:00,50.3,38.6,30.23,SSE,167,2.0,2.0,64,0.00,,,0.00,162,Wunderground v.1.15,2013-03-27 14:10:00,
2013-03-27 09:20:00,51.4,38.8,30.24,SE,144,4.0,7.0,62,0.00,,,0.00,141,Wunderground v.1.15,2013-03-27 14:20:00,
2013-03-27 09:25:00,51.6,38.6,30.24,SE,139,5.0,7.0,61,0.00,,,0.00,167,Wunderground v.1.15,2013-03-27 14:25:00,
2013-03-27 09:30:00,52.1,39.5,30.24,SE,140,4.0,4.0,62,0.00,,,0.00,195,Wunderground v.1.15,2013-03-27 14:30:00,
2013-03-27 09:35:00,52.9,40.2,30.24,SE,144,2.0,7.0,62,0.00,,,0.00,165,Wunderground v.1.15,2013-03-27 14:35:00,
2013-03-27 09:40:00,53.5,40.4,30.24,SE,144,4.0,6.0,61,0.00,,,0.00,192,Wunderground v.1.15,2013-03-27 14:40:00,
2013-03-27 09:45:00,54.0,40.8,30.24,SSE,149,6.0,6.0,61,0.00,,,0.00,221,Wunderground v.1.15,2013-03-27 14:45:00,
2013-03-27 09:50:00,54.8,41.6,30.24,SSE,149,5.0,5.0,61,0.00,,,0.00,207,Wunderground v.1.15,2013-03-27 14:50:00,
2013-03-27 09:55:00,55.5,42.3,30.24,SE,146,5.0,9.0,61,0.00,,,0.00,241,Wunderground v.1.15,2013-03-27 14:55:00,
2013-03-27 10:10:00,57.0,43.2,30.24,SSE,150,7.0,8.0,60,0.00,,,0.00,248,Wunderground v.1.15,2013-03-27 15:10:00,
2013-03-27 10:15:00,57.1,43.3,30.25,SSE,157,8.0,8.0,60,0.00,,,0.00,255,Wunderground v.1.15,2013-03-27 15:15:00,
2013-03-27 10:20:00,57.7,43.5,30.25,SSE,157,8.0,8.0,59,0.00,,,0.00,271,Wunderground v.1.15,2013-03-27 15:20:00,
2013-03-27 10:25:00,57.9,43.7,30.25,SSE,150,8.0,9.0,59,0.00,,,0.00,320,Wunderground v.1.15,2013-03-27 15:25:00,
2013-03-27 10:30:00,58.5,44.2,30.24,SSE,148,6.0,9.0,59,0.00,,,0.00,308,Wunderground v.1.15,2013-03-27 15:30:00,
2013-03-27 10:35:00,59.0,43.8,30.24,South,178,7.0,9.0,57,0.00,,,0.00,304,Wunderground v.1.15,2013-03-27 15:35:00,
2013-03-27 10:40:00,59.0,43.8,30.24,SE,143,8.0,8.0,57,0.00,,,0.00,336,Wunderground v.1.15,2013-03-27 15:40:00,
2013-03-27 10:45:00,58.6,43.4,30.25,SSE,151,11.0,11.0,57,0.00,,,0.00,302,Wunderground v.1.15,2013-03-27 15:45:00,
2013-03-27 10:50:00,59.0,43.8,30.25,SSE,165,10.0,10.0,57,0.00,,,0.00,316,Wunderground v.1.15,2013-03-27 15:50:00,
2013-03-27 10:55:00,59.5,44.2,30.25,SE,142,8.0,10.0,57,0.00,,,0.00,336,Wunderground v.1.15,2013-03-27 15:55:00,
2013-03-27 11:00:00,59.9,43.7,30.24,SSE,151,7.0,7.0,55,0.00,,,0.00,334,Wunderground v.1.15,2013-03-27 16:00:00,
2013-03-27 11:10:00,59.9,43.7,30.24,SSE,155,9.0,9.0,55,0.00,,,0.00,410,Wunderground v.1.15,2013-03-27 16:10:00,
2013-03-27 11:20:00,60.7,43.0,30.23,South,183,9.0,9.0,52,0.00,,,0.00,427,Wunderground v.1.15,2013-03-27 16:20:00,
2013-03-27 11:25:00,61.2,43.4,30.23,SSE,167,9.0,9.0,52,0.00,,,0.00,464,Wunderground v.1.15,2013-03-27 16:25:00,
2013-03-27 11:30:00,61.1,43.3,30.23,SSE,162,10.0,10.0,52,0.00,,,0.00,406,Wunderground v.1.15,2013-03-27 16:30:00,
2013-03-27 11:35:00,61.0,43.2,30.23,South,169,10.0,12.0,52,0.00,,,0.00,380,Wunderground v.1.15,2013-03-27 16:35:00,
2013-03-27 11:40:00,61.4,42.6,30.23,SSE,161,10.0,10.0,50,0.00,,,0.00,323,Wunderground v.1.15,2013-03-27 16:40:00,
2013-03-27 11:45:00,61.4,43.1,30.23,SSE,165,8.0,10.0,51,0.00,,,0.00,320,Wunderground v.1.15,2013-03-27 16:45:00,
2013-03-27 11:50:00,61.3,43.5,30.23,SE,140,8.0,10.0,52,0.00,,,0.00,329,Wunderground v.1.15,2013-03-27 16:50:00,
2013-03-27 12:00:00,61.6,42.8,30.23,SSE,147,10.0,10.0,50,0.00,,,0.00,285,Wunderground v.1.15,2013-03-27 17:00:00,
2013-03-27 12:10:00,61.8,43.0,30.23,ESE,120,11.0,11.0,50,0.00,,,0.00,276,Wunderground v.1.15,2013-03-27 17:10:00,
2013-03-27 12:15:00,61.7,42.9,30.23,South,171,10.0,11.0,50,0.00,,,0.00,278,Wunderground v.1.15,2013-03-27 17:15:00,
2013-03-27 12:20:00,62.3,42.9,30.23,South,186,8.0,12.0,49,0.00,,,0.00,313,Wunderground v.1.15,2013-03-27 17:20:00,
2013-03-27 12:30:00,62.4,43.0,30.22,SSE,167,9.0,9.0,49,0.00,,,0.00,299,Wunderground v.1.15,2013-03-27 17:30:00,
2013-03-27 12:35:00,62.5,43.1,30.22,SSW,195,9.0,10.0,49,0.00,,,0.00,264,Wunderground v.1.15,2013-03-27 17:35:00,
2013-03-27 12:40:00,62.5,42.5,30.22,South,190,12.0,13.0,48,0.00,,,0.00,334,Wunderground v.1.15,2013-03-27 17:40:00,
2013-03-27 12:45:00,63.0,43.0,30.22,South,175,12.0,13.0,48,0.00,,,0.00,322,Wunderground v.1.15,2013-03-27 17:45:00,
2013-03-27 12:50:00,62.5,43.1,30.22,South,183,10.0,10.0,49,0.00,,,0.00,251,Wunderground v.1.15,2013-03-27 17:50:00,
2013-03-27 12:55:00,62.2,42.8,30.22,SE,144,9.0,11.0,49,0.00,,,0.00,308,Wunderground v.1.15,2013-03-27 17:55:00,
2013-03-27 13:00:00,62.6,43.7,30.21,SSE,163,9.0,16.0,50,0.00,,,0.00,350,Wunderground v.1.15,2013-03-27 18:00:00,
2013-03-27 13:10:00,63.5,44.5,30.21,South,178,11.0,11.0,50,0.00,,,0.00,445,Wunderground v.1.15,2013-03-27 18:10:00,
2013-03-27 13:15:00,64.4,45.3,30.20,South,188,9.0,15.0,50,0.00,,,0.00,490,Wunderground v.1.15,2013-03-27 18:15:00,
2013-03-27 13:20:00,64.4,44.8,30.20,SSE,149,9.0,12.0,49,0.00,,,0.00,309,Wunderground v.1.15,2013-03-27 18:20:00,
2013-03-27 13:25:00,63.5,44.5,30.20,SSE,154,9.0,12.0,50,0.00,,,0.00,267,Wunderground v.1.15,2013-03-27 18:25:00,
2013-03-27 13:30:00,63.4,44.4,30.19,SSE,159,8.0,12.0,50,0.00,,,0.00,316,Wunderground v.1.15,2013-03-27 18:30:00,
2013-03-27 13:35:00,63.1,44.7,30.19,South,186,10.0,12.0,51,0.00,,,0.00,499,Wunderground v.1.15,2013-03-27 18:35:00,
2013-03-27 13:40:00,63.9,44.9,30.19,SE,133,10.0,10.0,50,0.00,,,0.00,388,Wunderground v.1.15,2013-03-27 18:40:00,
2013-03-27 13:50:00,64.0,44.4,30.18,SSE,159,9.0,9.0,49,0.00,,,0.00,429,Wunderground v.1.15,2013-03-27 18:50:00,
2013-03-27 14:00:00,64.9,45.3,30.18,SSE,153,9.0,18.0,49,0.00,,,0.00,446,Wunderground v.1.15,2013-03-27 19:00:00,
2013-03-27 14:10:00,64.1,44.5,30.18,SSE,156,10.0,11.0,49,0.00,,,0.00,239,Wunderground v.1.15,2013-03-27 19:10:00,
2013-03-27 14:15:00,63.8,45.3,30.18,South,184,10.0,11.0,51,0.00,,,0.00,267,Wunderground v.1.15,2013-03-27 19:15:00,
2013-03-27 14:20:00,64.3,46.3,30.18,SSW,193,10.0,12.0,52,0.00,,,0.00,325,Wunderground v.1.15,2013-03-27 19:20:00,
2013-03-27 14:30:00,64.8,46.8,30.17,SSE,156,9.0,12.0,52,0.00,,,0.00,443,Wunderground v.1.15,2013-03-27 19:30:00,
2013-03-27 14:35:00,65.3,46.7,30.17,SSW,198,10.0,17.0,51,0.00,,,0.00,515,Wunderground v.1.15,2013-03-27 19:35:00,
2013-03-27 14:45:00,65.9,47.3,30.16,SSW,194,11.0,11.0,51,0.00,,,0.00,466,Wunderground v.1.15,2013-03-27 19:45:00,
2013-03-27 14:50:00,65.7,46.5,30.16,SSE,168,10.0,10.0,50,0.00,,,0.00,411,Wunderground v.1.15,2013-03-27 19:50:00,
2013-03-27 15:00:00,64.9,46.3,30.15,SSE,149,9.0,12.0,51,0.00,,,0.00,329,Wunderground v.1.15,2013-03-27 20:00:00,
2013-03-27 15:10:00,64.6,46.1,30.15,SSE,161,10.0,10.0,51,0.00,,,0.00,264,Wunderground v.1.15,2013-03-27 20:10:00,
2013-03-27 15:20:00,64.7,46.7,30.14,SSE,147,9.0,9.0,52,0.00,,,0.00,388,Wunderground v.1.15,2013-03-27 20:20:00,
2013-03-27 15:25:00,65.3,47.7,30.14,SE,140,10.0,14.0,53,0.00,,,0.00,483,Wunderground v.1.15,2013-03-27 20:25:00,
2013-03-27 15:30:00,66.4,48.7,30.13,SSE,153,10.0,13.0,53,0.00,,,0.00,650,Wunderground v.1.15,2013-03-27 20:30:00,
2013-03-27 15:35:00,66.6,47.9,30.13,SSE,156,11.0,13.0,51,0.00,,,0.00,705,Wunderground v.1.15,2013-03-27 20:35:00,
2013-03-27 15:45:00,67.3,48.0,30.12,SE,142,10.0,10.0,50,0.00,,,0.00,933,Wunderground v.1.15,2013-03-27 20:45:00,
2013-03-27 15:50:00,67.1,48.4,30.12,SE,141,9.0,9.0,51,0.00,,,0.00,313,Wunderground v.1.15,2013-03-27 20:50:00,
2013-03-27 15:55:00,66.7,48.0,30.12,SSE,161,8.0,9.0,51,0.00,,,0.00,448,Wunderground v.1.15,2013-03-27 20:55:00,
2013-03-27 16:00:00,66.7,48.0,30.11,SSE,164,8.0,9.0,51,0.00,,,0.00,341,Wunderground v.1.15,2013-03-27 21:00:00,
2013-03-27 16:06:00,66.5,48.3,30.11,SE,127,8.0,12.0,52,0.00,,,0.00,817,Wunderground v.1.15,2013-03-27 21:06:00,
2013-03-27 16:10:00,67.4,48.1,30.11,ESE,119,9.0,10.0,50,0.00,,,0.00,854,Wunderground v.1.15,2013-03-27 21:10:00,
2013-03-27 16:15:00,67.1,48.4,30.10,South,173,9.0,10.0,51,0.00,,,0.00,357,Wunderground v.1.15,2013-03-27 21:15:00,
2013-03-27 16:20:00,66.9,47.6,30.10,SSE,163,9.0,9.0,50,0.00,,,0.00,308,Wunderground v.1.15,2013-03-27 21:20:00,
2013-03-27 16:25:00,66.7,48.5,30.10,SE,140,7.0,9.0,52,0.00,,,0.00,313,Wunderground v.1.15,2013-03-27 21:25:00,
2013-03-27 16:30:00,67.0,48.3,30.10,SSE,165,7.0,7.0,51,0.00,,,0.00,367,Wunderground v.1.15,2013-03-27 21:30:00,
2013-03-27 16:35:00,67.6,48.8,30.10,SSE,165,8.0,8.0,51,0.00,,,0.00,851,Wunderground v.1.15,2013-03-27 21:35:00,
2013-03-27 16:40:00,69.1,49.1,30.10,SSE,168,10.0,10.0,49,0.00,,,0.00,332,Wunderground v.1.15,2013-03-27 21:40:00,
2013-03-27 16:45:00,68.0,48.1,30.09,SE,126,11.0,11.0,49,0.00,,,0.00,406,Wunderground v.1.15,2013-03-27 21:45:00,
2013-03-27 16:50:00,67.3,48.5,30.09,ESE,119,9.0,9.0,51,0.00,,,0.00,306,Wunderground v.1.15,2013-03-27 21:50:00,
2013-03-27 16:55:00,67.3,48.5,30.09,South,190,9.0,14.0,51,0.00,,,0.00,295,Wunderground v.1.15,2013-03-27 21:55:00,
2013-03-27 17:00:00,67.2,48.5,30.09,SSE,167,9.0,15.0,51,0.00,,,0.00,292,Wunderground v.1.15,2013-03-27 22:00:00,
2013-03-27 17:10:00,67.5,48.7,30.09,SE,134,8.0,10.0,51,0.00,,,0.00,234,Wunderground v.1.15,2013-03-27 22:10:00,
2013-03-27 17:15:00,67.5,48.7,30.09,South,178,9.0,10.0,51,0.00,,,0.00,202,Wunderground v.1.15,2013-03-27 22:15:00,
2013-03-27 17:20:00,67.3,48.5,30.09,SSE,153,11.0,11.0,51,0.00,,,0.00,169,Wunderground v.1.15,2013-03-27 22:20:00,
2013-03-27 17:25:00,66.8,48.6,30.09,SE,144,10.0,11.0,52,0.00,,,0.00,153,Wunderground v.1.15,2013-03-27 22:25:00,
2013-03-27 17:30:00,66.6,48.9,30.09,SSE,152,9.0,9.0,53,0.00,,,0.00,165,Wunderground v.1.15,2013-03-27 22:30:00,
2013-03-27 17:35:00,66.5,48.3,30.09,SSE,157,9.0,11.0,52,0.00,,,0.00,183,Wunderground v.1.15,2013-03-27 22:35:00,
2013-03-27 17:45:00,66.6,48.9,30.09,ESE,120,9.0,15.0,53,0.00,,,0.00,149,Wunderground v.1.15,2013-03-27 22:45:00,
2013-03-27 17:50:00,66.5,48.8,30.09,SSE,161,10.0,14.0,53,0.00,,,0.00,116,Wunderground v.1.15,2013-03-27 22:50:00,
2013-03-27 17:55:00,66.3,49.2,30.09,SSE,163,9.0,14.0,54,0.00,,,0.00,120,Wunderground v.1.15,2013-03-27 22:55:00,
2013-03-27 18:00:00,66.3,48.7,30.09,South,171,9.0,9.0,53,0.00,,,0.00,120,Wunderground v.1.15,2013-03-27 23:00:00,
2013-03-27 18:10:00,66.2,49.1,30.09,SSE,148,8.0,9.0,54,0.00,,,0.00,123,Wunderground v.1.15,2013-03-27 23:10:00,
2013-03-27 18:15:00,66.3,48.7,30.09,SSE,165,9.0,9.0,53,0.00,,,0.00,113,Wunderground v.1.15,2013-03-27 23:15:00,
2013-03-27 18:20:00,66.2,48.6,30.09,SSE,163,9.0,10.0,53,0.00,,,0.00,104,Wunderground v.1.15,2013-03-27 23:20:00,
2013-03-27 18:25:00,66.1,49.0,30.09,SE,136,8.0,10.0,54,0.00,,,0.00,98,Wunderground v.1.15,2013-03-27 23:25:00,
2013-03-27 18:35:00,66.1,49.0,30.09,SE,140,9.0,11.0,54,0.00,,,0.00,60,Wunderground v.1.15,2013-03-27 23:35:00,
2013-03-27 18:40:00,66.1,49.0,30.09,SSE,167,9.0,13.0,54,0.00,,,0.00,56,Wunderground v.1.15,2013-03-27 23:40:00,
2013-03-27 18:45:00,66.0,48.9,30.08,South,180,10.0,14.0,54,0.00,,,0.00,46,Wunderground v.1.15,2013-03-27 23:45:00,
2013-03-27 18:50:00,65.8,48.7,30.08,SSE,150,11.0,11.0,54,0.00,,,0.00,56,Wunderground v.1.15,2013-03-27 23:50:00,
2013-03-27 18:55:00,65.8,48.7,30.08,South,169,11.0,11.0,54,0.00,,,0.00,60,Wunderground v.1.15,2013-03-27 23:55:00,
2013-03-27 19:00:00,65.7,49.1,30.09,SSE,156,10.0,10.0,55,0.00,,,0.00,30,Wunderground v.1.15,2013-03-28 00:00:00,
2013-03-27 19:10:00,65.6,48.5,30.09,SE,146,11.0,11.0,54,0.00,,,0.00,26,Wunderground v.1.15,2013-03-28 00:10:00,
2013-03-27 19:15:00,65.4,48.8,30.09,SSE,159,11.0,11.0,55,0.00,,,0.00,25,Wunderground v.1.15,2013-03-28 00:15:00,
2013-03-27 19:20:00,65.3,48.7,30.09,South,179,9.0,9.0,55,0.00,,,0.00,19,Wunderground v.1.15,2013-03-28 00:20:00,
2013-03-27 19:30:00,65.2,48.6,30.09,South,176,7.0,7.0,55,0.00,,,0.00,9,Wunderground v.1.15,2013-03-28 00:30:00,
2013-03-27 19:35:00,65.0,48.4,30.09,SSE,159,8.0,8.0,55,0.00,,,0.00,0,Wunderground v.1.15,2013-03-28 00:35:00,
2013-03-27 19:40:00,65.0,48.9,30.09,SSE,154,7.0,9.0,56,0.00,,,0.00,0,Wunderground v.1.15,2013-03-28 00:40:00,
2013-03-27 19:45:00,64.8,49.2,30.09,South,175,7.0,12.0,57,0.00,,,0.00,0,Wunderground v.1.15,2013-03-28 00:45:00,
2013-03-27 19:50:00,64.7,48.6,30.09,SSE,148,8.0,8.0,56,0.00,,,0.00,0,Wunderground v.1.15,2013-03-28 00:50:00,
2013-03-27 20:00:00,64.5,48.9,30.10,South,173,7.0,11.0,57,0.00,,,0.00,0,Wunderground v.1.15,2013-03-28 01:00:00,
2013-03-27 20:06:00,64.5,48.9,30.10,SSE,156,6.0,11.0,57,0.00,,,0.00,0,Wunderground v.1.15,2013-03-28 01:06:00,
2013-03-27 20:10:00,64.3,49.2,30.10,SSE,155,7.0,7.0,58,0.00,,,0.00,0,Wunderground v.1.15,2013-03-28 01:10:00,
2013-03-27 20:15:00,64.2,49.6,30.09,SSE,155,7.0,7.0,59,0.00,,,0.00,0,Wunderground v.1.15,2013-03-28 01:15:00,
2013-03-27 20:20:00,64.1,49.5,30.09,South,169,7.0,12.0,59,0.00,,,0.00,0,Wunderground v.1.15,2013-03-28 01:20:00,
2013-03-27 20:25:00,64.1,49.5,30.09,South,172,8.0,12.0,59,0.00,,,0.00,0,Wunderground v.1.15,2013-03-28 01:25:00,
2013-03-27 20:30:00,64.0,49.4,30.10,SSE,157,9.0,9.0,59,0.00,,,0.00,0,Wunderground v.1.15,2013-03-28 01:30:00,
2013-03-27 20:35:00,64.0,49.4,30.10,SSE,164,9.0,9.0,59,0.00,,,0.00,0,Wunderground v.1.15,2013-03-28 01:35:00,
2013-03-27 20:40:00,63.9,49.3,30.10,South,171,9.0,11.0,59,0.00,,,0.00,0,Wunderground v.1.15,2013-03-28 01:40:00,
2013-03-27 20:45:00,63.8,49.2,30.10,SSE,165,10.0,12.0,59,0.00,,,0.00,0,Wunderground v.1.15,2013-03-28 01:45:00,
2013-03-27 20:50:00,63.7,49.5,30.10,SSE,152,11.0,11.0,60,0.00,,,0.00,0,Wunderground v.1.15,2013-03-28 01:50:00,
2013-03-27 20:55:00,63.6,49.5,30.10,SSE,152,10.0,11.0,60,0.00,,,0.00,0,Wunderground v.1.15,2013-03-28 01:55:00,
2013-03-27 21:00:00,63.6,49.9,30.11,South,169,9.0,9.0,61,0.00,,,0.00,0,Wunderground v.1.15,2013-03-28 02:00:00,
2013-03-27 21:10:00,63.3,49.6,30.11,SSE,155,10.0,10.0,61,0.00,,,0.00,0,Wunderground v.1.15,2013-03-28 02:10:00,
2013-03-27 21:15:00,63.2,49.5,30.11,South,169,10.0,10.0,61,0.00,,,0.00,0,Wunderground v.1.15,2013-03-28 02:15:00,
2013-03-27 21:20:00,63.1,49.0,30.11,SE,128,9.0,9.0,60,0.00,,,0.00,0,Wunderground v.1.15,2013-03-28 02:20:00,
2013-03-27 21:25:00,62.9,48.8,30.11,SSE,162,9.0,10.0,60,0.00,,,0.00,0,Wunderground v.1.15,2013-03-28 02:25:00,
2013-03-27 21:30:00,62.8,48.7,30.11,SSE,165,10.0,13.0,60,0.00,,,0.00,0,Wunderground v.1.15,2013-03-28 02:30:00,
2013-03-27 21:35:00,62.7,48.6,30.11,SSE,160,10.0,13.0,60,0.00,,,0.00,0,Wunderground v.1.15,2013-03-28 02:35:00,
2013-03-27 21:40:00,62.6,49.0,30.11,SSE,148,9.0,9.0,61,0.00,,,0.00,0,Wunderground v.1.15,2013-03-28 02:40:00,
2013-03-27 21:45:00,62.5,48.9,30.11,SE,146,9.0,9.0,61,0.00,,,0.00,0,Wunderground v.1.15,2013-03-28 02:45:00,
2013-03-27 21:51:00,62.5,48.9,30.11,SE,146,10.0,16.0,61,0.00,,,0.00,0,Wunderground v.1.15,2013-03-28 02:51:00,
2013-03-27 21:55:00,62.4,49.2,30.11,SSE,165,9.0,16.0,62,0.00,,,0.00,0,Wunderground v.1.15,2013-03-28 02:55:00,
2013-03-27 22:00:00,62.3,49.1,30.11,SSE,160,9.0,9.0,62,0.00,,,0.00,0,Wunderground v.1.15,2013-03-28 03:00:00,
2013-03-27 22:10:00,62.1,48.9,30.11,SSE,159,8.0,8.0,62,0.00,,,0.00,0,Wunderground v.1.15,2013-03-28 03:10:00,
2013-03-27 22:15:00,62.1,49.4,30.11,SE,145,7.0,8.0,63,0.00,,,0.00,0,Wunderground v.1.15,2013-03-28 03:15:00,
2013-03-27 22:20:00,62.0,49.3,30.11,SE,139,8.0,10.0,63,0.00,,,0.00,0,Wunderground v.1.15,2013-03-28 03:20:00,
2013-03-27 22:30:00,61.8,49.1,30.11,SSE,150,8.0,8.0,63,0.00,,,0.00,0,Wunderground v.1.15,2013-03-28 03:30:00,
2013-03-27 22:35:00,61.7,49.4,30.11,SSE,156,9.0,9.0,64,0.00,,,0.00,0,Wunderground v.1.15,2013-03-28 03:35:00,
2013-03-27 22:45:00,61.6,49.7,30.11,SSE,161,8.0,9.0,65,0.00,,,0.00,0,Wunderground v.1.15,2013-03-28 03:45:00,
2013-03-27 22:50:00,61.5,50.0,30.11,SSE,148,9.0,12.0,66,0.00,,,0.00,0,Wunderground v.1.15,2013-03-28 03:50:00,
2013-03-27 22:55:00,61.5,50.0,30.11,SSE,160,10.0,12.0,66,0.00,,,0.00,0,Wunderground v.1.15,2013-03-28 03:55:00,
2013-03-27 23:00:00,61.4,50.3,30.11,SSE,160,9.0,9.0,67,0.00,,,0.00,0,Wunderground v.1.15,2013-03-28 04:00:00,
2013-03-27 23:05:00,61.4,50.7,30.11,South,173,8.0,9.0,68,0.00,,,0.00,0,Wunderground v.1.15,2013-03-28 04:05:00,
2013-03-27 23:10:00,61.3,51.0,30.11,SSE,159,8.0,8.0,69,0.00,,,0.00,0,Wunderground v.1.15,2013-03-28 04:10:00,
2013-03-27 23:15:00,61.3,51.0,30.12,SSE,165,8.0,9.0,69,0.00,,,0.00,0,Wunderground v.1.15,2013-03-28 04:15:00,
2013-03-27 23:20:00,61.3,51.0,30.12,SSE,156,7.0,10.0,69,0.00,,,0.00,0,Wunderground v.1.15,2013-03-28 04:20:00,
2013-03-27 23:25:00,61.2,51.3,30.12,SSE,163,7.0,12.0,70,0.00,,,0.00,0,Wunderground v.1.15,2013-03-28 04:25:00,
2013-03-27 23:30:00,61.2,51.3,30.11,SSE,148,7.0,7.0,70,0.00,,,0.00,0,Wunderground v.1.15,2013-03-28 04:30:00,
2013-03-27 23:35:00,61.1,51.6,30.11,SSE,168,6.0,10.0,71,0.00,,,0.00,0,Wunderground v.1.15,2013-03-28 04:35:00,
2013-03-27 23:40:00,61.1,51.6,30.11,SSE,160,6.0,6.0,71,0.00,,,0.00,0,Wunderground v.1.15,2013-03-28 04:40:00,
2013-03-27 23:45:00,61.1,52.0,30.11,South,169,7.0,9.0,72,0.00,,,0.00,0,Wunderground v.1.15,2013-03-28 04:45:00,
2013-03-27 23:50:00,61.0,51.9,30.11,South,169,7.0,7.0,72,0.00,,,0.00,0,Wunderground v.1.15,2013-03-28 04:50:00,